Location: Unspecified
(0.0000°N, 1.0000°E)
Time: 09:06:42
(UTC+01:00)

Daily predictions for brighter satellites

Satellite Brightness Start Highest point End
(mag) Time Altitude Azimuth Time Altitude Azimuth Time Altitude Azimuth
Aurora 2 Rocket 3.9 19:22:49 10° SW 19:28:44 64° SSE 19:37:17 10° ENE
Cosmos 1538 Rocket 4.1 19:24:12 10° SSW 19:29:25 83° WNW 19:34:39 10° N
Cosmos 1515 Rocket 3.7 19:25:52 10° N 19:30:18 85° W 19:34:43 10° S
SOZ 4.1 19:32:56 10° NNW 19:35:51 44° NE 19:37:57 10° SE
Coronas F rocket 2.1 19:34:22 10° SSE 19:36:27 25° E 19:38:31 10° NE
Cosmos 990 Rocket 4.2 19:31:22 10° NNW 19:36:37 81° WSW 19:41:51 10° S
Cosmos 923 Rocket 4.5 19:32:16 10° S 19:37:12 41° ESE 19:42:04 10° NNE
Sich 1 3.0 19:35:09 10° S 19:39:32 70° E 19:43:56 10° N
Cosmos 1151 Rocket 3.0 19:36:30 10° N 19:40:47 81° E 19:45:07 10° S
Cosmos 1633 Rocket 3.1 19:37:54 10° S 19:42:17 64° E 19:46:39 10° NNE
Skynet4D Del rocket 4.1 19:38:20 10° NW 19:44:35 67° NNE 19:51:52 10° ESE
Cosmos 1680 Rocket 4.1 19:41:10 10° SSE 19:45:55 36° ESE 19:50:38 10° NE
USA 129 2.3 19:49:12 22° E 19:49:28 23° ESE 19:50:57 10° SSE
Resurs 01 Rocket 3.0 19:47:00 10° ESE 19:50:03 18° ENE 19:53:04 10° NE
ARIANE 44LP R/B 3.0 19:49:21 10° NW 19:51:03 20° N 19:52:29 15° NE
BLOCK DM-SL R/B 3.6 19:48:44 10° W 19:53:39 84° S 20:01:32 12° E
Iridium 4 Rocket 3.6 19:52:38 10° SSE 19:57:52 54° E 20:02:36 10° NNE
Cosmos 1943 4.1 19:53:33 10° SSE 19:58:15 27° ESE 20:01:21 17° ENE
Cosmos 1300 3.7 19:56:51 10° NNW 20:00:34 50° W 20:04:17 10° S
FREGAT/IRIS 2.5 19:58:12 10° SSE 20:01:15 65° E 20:04:16 10° N
Cosmos 1726 3.6 20:00:14 10° NNW 20:03:48 41° W 20:07:23 10° SSW
H-2A R/B 4.5 20:02:40 10° SE 20:04:07 16° ESE 20:04:07 16° ESE
NOSS 3-1 (C) 3.3 19:59:56 10° S 20:05:29 57° ESE 20:09:46 17° NE
Maqsat-B 4.1 19:56:28 10° WSW 20:05:49 46° S 20:08:50 15° ESE
Ariane 42L R/B 2.2 20:03:26 10° WSW 20:06:01 38° S 20:06:59 23° ESE
Cosmos 1844 Rocket 2.8 20:00:55 10° NNW 20:06:31 79° WSW 20:12:06 10° SSE
Ariane H10 1.7 20:00:52 10° W 20:06:36 75° N 20:07:59 27° ENE
FENGYUN 3A 4.1 20:04:01 10° SE 20:08:54 36° ENE 20:13:45 10° NNE
Cosmos 2279 Rocket 4.1 20:04:41 10° N 20:10:53 79° W 20:17:09 10° S
Cosmos 2026 Rocket 4.3 20:06:01 10° SSE 20:12:03 46° E 20:17:37 12° NNE
Ariane H10+ 3.0 20:08:09 10° W 20:13:48 37° NNW 20:14:51 27° NNE
SJ-6B 2.9 20:11:00 10° S 20:14:54 77° WSW 20:18:52 10° NNW
Genesis I 3.6 20:12:08 10° S 20:15:52 43° ESE 20:16:55 34° ENE
Cosmos 1603 4.2 20:14:01 10° SSW 20:19:35 59° WNW 20:25:06 10° N
Helios 1B rocket 3.2 20:15:42 10° N 20:19:41 51° WNW 20:23:41 10° SSW
Cosmos 2112 Rocket 3.9 20:15:24 10° S 20:20:35 79° E 20:24:36 17° NNE
Meteor 1-29 3.6 20:20:02 11° N 20:23:14 53° W 20:26:33 10° SSW
Cosmos 1092 Rocket 4.4 20:18:15 10° SSW 20:24:26 64° W 20:30:40 10° N
Cosmos 1933 Rocket 3.5 20:20:48 10° S 20:25:11 87° W 20:28:56 14° N
Cosmos 1707 Rocket 3.4 20:21:14 10° N 20:25:33 76° E 20:29:55 10° S
Centaur D-1A AC-31 3.0 19:57:45 10° NW 20:26:08 44° NNE 20:28:58 30° ENE
ERBS 4.1 20:28:49 10° S 20:30:43 21° SSE 20:30:43 21° SSE
ARIANE 5 DEB (SYLDA) 3.7 20:35:57 10° WSW 20:37:43 26° SW 20:37:43 26° SW
Intelsat 5-3 Rocket 4.1 20:27:42 10° WSW 20:40:35 50° SSE 20:42:56 33° ESE
Meteor 2-3 Rocket 4.3 20:36:29 10° SSE 20:40:59 36° ESE 20:40:59 36° ESE
FALCON 9 R/B 4.2 20:34:58 10° WNW 20:42:57 25° SW 20:46:28 10° S
Cosmos 1428 Rocket 4.4 20:41:10 10° S 20:47:16 63° E 20:48:50 47° NE
Cosmos 372 Rocket 4.1 20:42:42 10° NNW 20:47:45 71° WSW 20:52:52 10° S
Cosmos 2242 Rocket 4.2 20:51:31 45° SSE 20:51:31 45° SSE 20:54:45 10° S
Cosmos 2278 Rocket 2.3 20:46:50 10° NNW 20:52:29 74° WSW 20:58:08 10° S
ARIANE DEB (SPELDA) 3.7 20:49:39 10° W 20:53:18 72° S 20:58:15 32° E
Spot 1 4.3 20:49:56 10° SSE 20:55:05 86° E 20:56:09 57° N
Ariane H10+ 3.6 20:54:31 10° W 20:57:37 31° W 20:57:37 31° W
Cosmos 1655 Rocket 4.2 20:53:59 10° S 21:00:21 71° W 21:04:27 23° N
ALOS 3.5 20:57:24 10° S 21:01:46 40° WSW 21:06:08 10° NNW
Spot 2 Rocket 4.2 20:57:10 10° S 21:02:07 53° WSW 21:07:01 10° NNW
Spelda 3.5 21:03:47 10° W 21:08:13 41° WSW 21:08:13 41° WSW
Ariane H10 4.0 21:02:29 10° W 21:09:15 44° SSW 21:09:15 44° SSW
USA 234 3.7 21:12:36 45° SE 21:12:36 45° SE 21:18:18 10° SSW
NOSS 3-1 (A) 4.2 21:10:01 10° SW 21:15:15 40° WNW 21:16:29 35° NW
FUSE 4.5 21:12:44 10° WNW 21:16:59 55° W 21:16:59 55° W
ATLAS 2AS CENTAUR R/B 3.7 21:16:01 10° S 21:19:52 31° SSE 21:19:52 31° SSE
Resurs 01 Rocket 4.2 21:23:02 10° SSW 21:26:14 20° WSW 21:29:27 10° NW
Ariane H10 4.3 21:41:51 10° WSW 22:12:20 - E 21:45:13 51° SSW
ARIANE 5 R/B 4.1 21:38:54 10° W 21:50:39 42° WNW 21:50:39 42° WNW
